CZ-7A R/B

Last updated on Wed Jun 18 2025 00:02:04 GMT+0000 (Coordinated Universal Time)

1 64063U 25106B 25168.07772900 .00223628 -40160-6 22460-2 0 9994 2 64063 15.5976 64.2839 7108049 202.1471 97.4277 2.55922355 691

Satellite not in orbit